Location: Plymouth
(43.7570°N, 71.6890°W)
Time: 21:34:43
(UTC-05:00)

Amateur Radio Satellites - All Passes

Search period start: 22 February 2017 21:04
Search period end: 23 February 2017 21:04
Location: Plymouth, 43.7570°N, 71.6890°W

Satellite Date Start Highest point End Downlink Frequencies (MHz)
Time Altitude Azimuth
FO-29 22 Feb 21:12:18 21:17:46 21° 86° (E) 21:22:55 435.910
ZACube-1 22 Feb 21:15:57 21:17:41 12° 272° (W) 21:19:26 437.345
YUBILEINY 22 Feb 21:23:17 21:32:04 76° 80° (E) 21:40:45 435.215
DELFI C3 22 Feb 21:42:46 21:45:29 18° 267° (W) 21:48:13 145.870
PRISM 22 Feb 21:42:51 21:46:53 61° 287° (WNW) 21:50:53 437.425
SO-50 22 Feb 22:04:53 22:09:05 33° 116° (ESE) 22:13:14 436.795
ESTCUBE 1 22 Feb 22:08:07 22:12:35 61° 73° (ENE) 22:17:03 437.505/2401.250
RS-15 22 Feb 22:11:13 22:21:16 27° 358° (N) 22:31:19 29.354- 29.394
50 SAT 22 Feb 22:27:29 22:29:59 19° 67° (ENE) 22:32:30 437.505
DUCHIFAT 1 22 Feb 22:28:29 22:30:07 12° 89° (E) 22:31:45 145.980
UNISAT 6 22 Feb 22:33:32 22:38:03 47° 289° (WNW) 22:42:32 437.425
EO-79 22 Feb 22:34:43 22:37:34 17° 92° (E) 22:40:23 145.935-145.965
TIGRISAT 22 Feb 22:34:45 22:39:19 49° 288° (WNW) 22:43:49 435.000
VELOX 1 22 Feb 22:46:38 22:50:53 52° 72° (ENE) 22:55:10 145.980
DX 1 22 Feb 22:48:48 22:52:23 26° 67° (ENE) 22:55:59 434.975-435.025
POLYITAN 1 22 Feb 22:50:42 22:54:18 25° 95° (E) 22:57:52 437.675
NANOSAT C BR1 22 Feb 22:53:05 22:56:37 24° 95° (E) 23:00:07 145.865
QB50P2 22 Feb 22:53:25 22:57:10 29° 96° (E) 23:00:54 145.880/145.840
AIST 2D 22 Feb 22:54:52 22:58:19 45° 99° (E) 23:01:44 435.315
FO-29 22 Feb 22:55:52 23:03:41 83° 286° (WNW) 23:10:50 435.910
O/OREOS (USA 219) 22 Feb 22:56:44 23:01:10 71° 111° (ESE) 23:05:39 437.305
UKube-1 22 Feb 23:06:45 23:10:26 29° 68° (ENE) 23:14:09 .
SPROUT 22 Feb 23:16:51 23:21:06 87° 76° (ENE) 23:25:24 437.525
YUBILEINY 22 Feb 23:21:25 23:27:53 24° 281° (W) 23:34:22 435.215
BUGSAT 1 22 Feb 23:36:08 23:39:32 23° 94° (E) 23:42:57 437.445
SO-50 22 Feb 23:45:15 23:49:30 34° 313° (NW) 23:53:45 436.795
ESTCUBE 1 22 Feb 23:47:23 23:49:47 14° 270° (W) 23:52:09 437.505/2401.250
Oscar 19 22 Feb 23:56:16 23:58:14 12° 88° (E) 00:00:13 437.125/150
50 SAT 22 Feb 23:59:54 00:02:57 27° 263° (W) 00:06:01 437.505
DUCHIFAT 1 23 Feb 00:01:58 00:06:13 65° 286° (WNW) 00:10:25 145.980
EO-79 23 Feb 00:09:27 00:13:33 45° 289° (WNW) 00:17:38 145.935-145.965
Gurwin Techsat 1B 23 Feb 00:18:24 00:19:53 11° 87° (E) 00:21:22 435.225
DX 1 23 Feb 00:24:38 00:28:27 31° 263° (W) 00:32:19 434.975-435.025
VELOX 1 23 Feb 00:25:03 00:27:39 15° 269° (W) 00:30:15 145.980
POLYITAN 1 23 Feb 00:26:18 00:30:04 31° 292° (WNW) 00:33:51 437.675
RS-15 23 Feb 00:26:57 00:38:26 40° 32° (NNE) 00:49:33 29.354- 29.394
NANOSAT C BR1 23 Feb 00:28:33 00:32:21 31° 291° (WNW) 00:36:06 145.865
QB50P2 23 Feb 00:29:15 00:32:53 27° 292° (WNW) 00:36:29 145.880/145.840
AIST 2D 23 Feb 00:29:32 00:31:10 13° 295° (WNW) 00:32:47 435.315
PCSat 23 Feb 00:32:47 00:37:43 33° 48° (NE) 00:42:36 145.827
O/OREOS (USA 219) 23 Feb 00:38:32 00:41:06 15° 310° (NW) 00:43:42 437.305
FO-29 23 Feb 00:42:17 00:47:29 20° 307° (NW) 00:52:29 435.910
UKube-1 23 Feb 00:42:45 00:46:25 27° 264° (W) 00:50:06 .
BUGSAT 1 23 Feb 01:11:09 01:14:56 33° 291° (WNW) 01:18:44 437.445
ITUPSAT 1 23 Feb 01:12:52 01:17:25 44° 70° (ENE) 01:22:00 437.325
BEESAT 23 Feb 01:21:17 01:25:56 54° 71° (ENE) 01:30:38 436.000
Oscar 19 23 Feb 01:33:03 01:38:12 84° 287° (WNW) 01:43:19 437.125/150
Gurwin Techsat 1B 23 Feb 01:55:14 02:00:35 87° 104° (ESE) 02:05:55 435.225
AO-7 23 Feb 02:00:13 02:05:50 19° 90° (E) 02:11:24 .
ITAMSAT 1 23 Feb 02:01:30 02:05:12 19° 92° (E) 02:08:53 435.822/435.867
MOZHAYETS 4 23 Feb 02:07:12 02:11:43 54° 72° (ENE) 02:16:16
PCSat 23 Feb 02:16:06 02:21:12 41° 247° (WSW) 02:26:14 145.827
RS-15 23 Feb 02:40:00 02:52:23 83° 239° (WSW) 03:04:13 29.354- 29.394
ITUPSAT 1 23 Feb 02:51:46 02:55:27 22° 267° (W) 02:59:08 437.325
KKS-1 23 Feb 02:58:33 03:02:48 50° 72° (ENE) 03:07:06 437.445
CUBESAT XI-V 23 Feb 02:59:34 03:03:41 31° 68° (ENE) 03:07:47 437.345
BEESAT 23 Feb 03:00:52 03:04:03 17° 268° (W) 03:07:14 436.000
Oscar 19 23 Feb 03:14:42 03:16:43 12° 303° (WNW) 03:18:43 437.125/150
M-CUBED/EXP-1 PRIME 23 Feb 03:28:37 03:31:41 37° 66° (ENE) 03:34:43 437.505
Gurwin Techsat 1B 23 Feb 03:36:59 03:39:48 15° 302° (WNW) 03:42:37 435.225
ITAMSAT 1 23 Feb 03:39:53 03:45:02 57° 289° (WNW) 03:50:08 435.822/435.867
STARS 23 Feb 03:40:14 03:44:33 63° 73° (ENE) 03:48:54 437.465
MOZHAYETS 4 23 Feb 03:46:16 03:49:13 17° 269° (W) 03:52:10
AO-85 23 Feb 03:48:12 03:51:48 23° 114° (ESE) 03:55:12 145.980
AO-7 23 Feb 03:51:16 03:59:39 90° 293° (WNW) 04:07:57 .
KKS-1 23 Feb 04:36:53 04:39:39 16° 268° (W) 04:42:26 437.445
CUBESAT XI-V 23 Feb 04:37:00 04:41:02 29° 265° (W) 04:45:05 437.345
DOVE 4 23 Feb 04:45:38 04:48:13 15° 91° (E) 04:50:52 437.250
XW-2D 23 Feb 04:50:20 04:51:26 11° 89° (E) 04:52:31 145.860 - 145.880
RS-15 23 Feb 04:54:31 05:02:53 22° 262° (W) 05:11:03 29.354- 29.394
XW-2B 23 Feb 04:54:52 04:56:27 12° 90° (E) 04:58:02 145.730 - 145.750
SO-50 23 Feb 04:57:00 04:57:15 10° 27° (NNE) 04:57:29 436.795
XW-2C 23 Feb 05:02:44 05:05:05 15° 92° (E) 05:07:24 145.795 - 145.815
M-CUBED/EXP-1 PRIME 23 Feb 05:05:03 05:06:22 12° 262° (W) 05:07:40 437.505
LilacSat-2 23 Feb 05:16:05 05:19:12 23° 94° (E) 05:22:17 437.200
STARS 23 Feb 05:19:21 05:21:19 13° 270° (W) 05:23:16 437.465
NUDT-PHONESAT 23 Feb 05:23:43 05:26:42 22° 94° (E) 05:29:39 437.300
AO-85 23 Feb 05:27:44 05:32:00 42° 310° (NW) 05:36:02 145.980
STRAND 1 23 Feb 05:34:06 05:38:47 37° 68° (ENE) 05:43:30 437.568
AO-7 23 Feb 05:45:14 05:51:23 24° 310° (NW) 05:57:31 .
CUTE-I 23 Feb 06:07:52 06:13:17 70° 103° (ESE) 06:18:38 437.470
KAITUO 1B 23 Feb 06:18:48 06:22:36 78° 284° (WNW) 06:26:21 145.475/437.950
XW-2F 23 Feb 06:19:10 06:22:58 65° 286° (WNW) 06:26:43 145.980 - 146.000
DOVE 4 23 Feb 06:21:40 06:26:14 64° 286° (WNW) 06:31:05 437.250
XW-2D 23 Feb 06:22:12 06:25:59 56° 286° (WNW) 06:29:42 145.860 - 145.880
CUTE 1.7 + AOD 2 23 Feb 06:23:53 06:26:28 16° 91° (E) 06:29:02 437.475
XW-2B 23 Feb 06:27:13 06:30:58 50° 287° (WNW) 06:34:39 145.730 - 145.750
BEESAT 3 23 Feb 06:32:51 06:36:42 62° 121° (ESE) 06:40:37 437.485
SO-50 23 Feb 06:34:35 06:38:55 43° 49° (NE) 06:43:11 436.795
XW-2C 23 Feb 06:35:52 06:39:28 39° 288° (WNW) 06:43:02 145.795 - 145.815
LilacSat-2 23 Feb 06:50:10 06:53:27 27° 291° (WNW) 06:56:42 437.200
NUDT-PHONESAT 23 Feb 06:57:24 07:00:38 27° 291° (WNW) 07:03:49 437.300
UWE-3 23 Feb 06:58:41 07:00:27 12° 88° (E) 07:02:11 435.000/436.395/437.385
PRISM 23 Feb 07:01:05 07:02:18 11° 60° (ENE) 07:03:30 437.425
BEESAT 2 23 Feb 07:05:21 07:09:12 57° 120° (ESE) 07:13:09 435.950
HO-68 23 Feb 07:11:51 07:18:51 54° 101° (E) 07:25:48 435.675
STRAND 1 23 Feb 07:13:35 07:18:00 29° 265° (W) 07:22:29 437.568
XW-2A 23 Feb 07:17:14 07:20:43 78° 284° (WNW) 07:24:09 145.665 - 145.685
AAUSAT CUBESAT 2 23 Feb 07:22:33 07:25:48 22° 94° (E) 07:29:01 437.432
SEEDS 23 Feb 07:25:01 07:29:05 48° 99° (E) 07:33:05 437.485
ZACube-1 23 Feb 07:25:14 07:27:25 13° 89° (E) 07:29:36 437.345
O/OREOS (USA 219) 23 Feb 07:26:45 07:30:13 21° 54° (NE) 07:33:43 437.305
FO-29 23 Feb 07:28:16 07:31:21 13° 47° (NE) 07:34:30 435.910
CUTE-I 23 Feb 07:49:11 07:52:45 18° 300° (WNW) 07:56:18 437.470
CUBEBUG 2 23 Feb 07:49:51 07:54:36 63° 100° (E) 07:59:18 437.445
UNISAT 6 23 Feb 07:57:56 08:01:13 20° 64° (ENE) 08:04:32 437.425
CUTE 1.7 + AOD 2 23 Feb 07:58:30 08:02:35 47° 287° (WNW) 08:06:36 437.475
TIGRISAT 23 Feb 07:59:09 08:02:19 19° 63° (ENE) 08:05:33 435.000
ISS 23 Feb 08:08:51 08:11:45 29° 138° (SE) 08:14:39 437.550
BEESAT 3 23 Feb 08:12:03 08:14:42 17° 320° (NW) 08:17:23 437.485
AO-73 23 Feb 08:13:37 08:17:53 38° 97° (E) 08:22:04 145.935
SO-50 23 Feb 08:15:33 08:19:08 24° 247° (WSW) 08:22:41 436.795
Oscar 11 23 Feb 08:23:37 08:27:43 40° 98° (E) 08:31:47 .
UWE-3 23 Feb 08:32:44 08:37:26 76° 285° (WNW) 08:42:03 435.000/436.395/437.385
PRISM 23 Feb 08:32:55 08:37:00 74° 257° (WSW) 08:41:05 437.425
YUBILEINY 23 Feb 08:33:27 08:38:34 17° 75° (ENE) 08:43:39 435.215
Tancredo 1 23 Feb 08:40:08 08:43:20 59° 144° (SE) 08:46:33 437.200
BEESAT 2 23 Feb 08:44:30 08:47:20 18° 319° (NW) 08:50:12 435.950
AAUSAT CUBESAT 2 23 Feb 08:57:39 09:01:18 31° 290° (WNW) 09:04:56 437.432
ZACube-1 23 Feb 08:59:36 09:04:09 66° 286° (WNW) 09:08:38 437.345
HO-68 23 Feb 09:00:05 09:06:16 33° 300° (WNW) 09:12:27 435.675
SEEDS 23 Feb 09:01:46 09:04:23 16° 296° (WNW) 09:07:00 437.485
O/OREOS (USA 219) 23 Feb 09:05:30 09:09:54 47° 252° (WSW) 09:14:17 437.305
FO-29 23 Feb 09:07:44 09:14:35 55° 68° (ENE) 09:22:06 435.910
DELFI C3 23 Feb 09:17:03 09:20:53 50° 100° (E) 09:24:42 145.870
DUCHIFAT 1 23 Feb 09:22:17 09:23:39 11° 60° (ENE) 09:25:02 145.980
CUBEBUG 2 23 Feb 09:27:43 09:30:42 17° 298° (WNW) 09:33:40 437.445
EO-79 23 Feb 09:28:48 09:31:23 16° 63° (ENE) 09:33:58 145.935-145.965
AIST 2D 23 Feb 09:31:02 09:33:45 21° 68° (ENE) 09:36:29 435.315
UNISAT 6 23 Feb 09:33:16 09:37:34 45° 262° (W) 09:41:59 437.425
TIGRISAT 23 Feb 09:34:19 09:38:38 48° 262° (W) 09:43:05 435.000
POLYITAN 1 23 Feb 09:44:38 09:47:59 23° 66° (ENE) 09:51:21 437.675
ISS 23 Feb 09:44:56 09:48:07 44° 336° (NNW) 09:51:18 437.550
NANOSAT C BR1 23 Feb 09:46:34 09:49:49 22° 66° (ENE) 09:53:06 145.865
QB50P2 23 Feb 09:47:17 09:50:48 26° 67° (ENE) 09:54:20 145.880/145.840
AO-73 23 Feb 09:50:17 09:53:54 23° 294° (WNW) 09:57:27 145.935
Oscar 11 23 Feb 10:00:25 10:03:34 20° 295° (WNW) 10:06:43 .
ESTCUBE 1 23 Feb 10:01:33 10:02:58 11° 89° (E) 10:04:24 437.505/2401.250
Tancredo 1 23 Feb 10:16:53 10:19:48 29° 342° (NNW) 10:22:42 437.200
YUBILEINY 23 Feb 10:25:06 10:33:56 83° 95° (E) 10:42:46 435.215
BUGSAT 1 23 Feb 10:27:29 10:30:23 19° 65° (ENE) 10:33:20 437.445
DELFI C3 23 Feb 10:53:11 10:55:16 14° 296° (WNW) 10:57:22 145.870
FO-29 23 Feb 10:53:42 10:59:55 33° 268° (W) 11:06:40 435.910
DUCHIFAT 1 23 Feb 10:54:31 10:58:43 76° 259° (W) 11:02:57 145.980
EO-79 23 Feb 11:02:37 11:06:44 51° 260° (W) 11:10:54 145.935-145.965
SPROUT 23 Feb 11:02:47 11:04:59 14° 90° (E) 11:07:11 437.525
AIST 2D 23 Feb 11:03:52 11:06:51 25° 265° (W) 11:09:52 435.315
Oscar 19 23 Feb 11:13:28 11:17:23 22° 63° (ENE) 11:21:18 437.125/150
POLYITAN 1 23 Feb 11:19:44 11:23:35 33° 263° (W) 11:27:29 437.675
NANOSAT C BR1 23 Feb 11:21:29 11:25:20 35° 263° (W) 11:29:14 145.865
ISS 23 Feb 11:22:35 11:25:09 21° 355° (N) 11:27:45 437.550
QB50P2 23 Feb 11:22:47 11:26:29 29° 264° (W) 11:30:15 145.880/145.840
50 SAT 23 Feb 11:23:52 11:26:07 16° 93° (E) 11:28:21 437.505
ESTCUBE 1 23 Feb 11:35:48 11:40:17 73° 285° (WNW) 11:44:45 437.505/2401.250
Gurwin Techsat 1B 23 Feb 11:39:26 11:43:28 23° 62° (ENE) 11:47:31 435.225
Tancredo 1 23 Feb 11:54:18 11:56:48 20° 2° (N) 11:59:16 437.200
BUGSAT 1 23 Feb 12:01:43 12:05:29 37° 262° (W) 12:09:20 437.445
DX 1 23 Feb 12:10:50 12:14:55 38° 98° (E) 12:18:59 434.975-435.025
VELOX 1 23 Feb 12:11:20 12:15:46 89° 118° (ESE) 12:20:11 145.980
AO-85 23 Feb 12:17:34 12:20:57 27° 46° (NE) 12:24:19 145.980
YUBILEINY 23 Feb 12:25:08 12:31:50 23° 298° (WNW) 12:38:33 435.215
UKube-1 23 Feb 12:27:38 12:31:44 42° 99° (E) 12:35:50 .
SPROUT 23 Feb 12:37:01 12:41:15 57° 287° (WNW) 12:45:28 437.525
Oscar 19 23 Feb 12:51:21 12:56:21 51° 260° (W) 13:01:23 437.125/150
50 SAT 23 Feb 12:56:15 12:59:20 30° 290° (WNW) 13:02:23 437.505
ISS 23 Feb 12:59:29 13:02:22 27° 15° (NNE) 13:05:14 437.550
AO-7 23 Feb 13:00:16 13:07:30 34° 56° (NE) 13:14:42 .
BEESAT 3 23 Feb 13:13:47 13:13:54 10° 32° (NNE) 13:14:01 437.485
Gurwin Techsat 1B 23 Feb 13:17:51 13:23:01 53° 260° (W) 13:28:15 435.225
ITAMSAT 1 23 Feb 13:20:21 13:25:00 34° 66° (ENE) 13:29:41 435.822/435.867
BEESAT 23 Feb 13:22:04 13:23:58 12° 89° (E) 13:25:52 436.000
Tancredo 1 23 Feb 13:30:40 13:33:43 37° 23° (NNE) 13:36:44 437.200
DX 1 23 Feb 13:47:34 13:50:52 21° 295° (WNW) 13:54:10 434.975-435.025
VELOX 1 23 Feb 13:50:34 13:51:31 11° 301° (WNW) 13:52:28 145.980
AO-85 23 Feb 13:57:52 14:01:19 30° 244° (WSW) 14:04:48 145.980
MOZHAYETS 4 23 Feb 14:03:12 14:04:40 11° 88° (E) 14:06:07
UKube-1 23 Feb 14:04:22 14:07:29 20° 296° (WNW) 14:10:36 .
ISS 23 Feb 14:35:48 14:39:06 75° 214° (SW) 14:42:21 437.550
BEESAT 3 23 Feb 14:48:27 14:52:24 55° 52° (NE) 14:56:20 437.485
ITUPSAT 1 23 Feb 14:49:21 14:54:12 88° 103° (ESE) 14:58:59 437.325
AO-7 23 Feb 14:51:32 14:59:47 63° 256° (WSW) 15:08:06 .
BEESAT 23 Feb 14:57:29 15:02:18 77° 285° (WNW) 15:07:03 436.000
ITAMSAT 1 23 Feb 14:59:49 15:04:27 32° 264° (W) 15:09:07 435.822/435.867
RS-15 23 Feb 15:01:11 15:05:20 12° 92° (E) 15:09:30 29.354- 29.394
Tancredo 1 23 Feb 15:07:00 15:10:00 36° 220° (SW) 15:12:58 437.200
PCSat 23 Feb 15:16:58 15:20:54 21° 106° (ESE) 15:24:52 145.827
BEESAT 2 23 Feb 15:21:47 15:25:46 52° 52° (NE) 15:29:43 435.950
STARS 23 Feb 15:31:17 15:31:49 10° 89° (E) 15:32:20 437.465
MOZHAYETS 4 23 Feb 15:37:45 15:42:23 77° 284° (WNW) 15:46:57
XW-2C 23 Feb 15:47:19 15:47:55 10° 62° (ENE) 15:48:31 145.795 - 145.815
CUTE-I 23 Feb 15:53:14 15:56:54 19° 60° (ENE) 16:00:35 437.470
DOVE 4 23 Feb 15:53:20 15:55:39 15° 63° (ENE) 15:57:58 437.250
LilacSat-2 23 Feb 16:00:00 16:02:18 15° 64° (ENE) 16:04:35 437.200
NUDT-PHONESAT 23 Feb 16:05:34 16:07:26 13° 64° (ENE) 16:09:19 437.300
KKS-1 23 Feb 16:24:13 16:28:43 85° 102° (ESE) 16:33:12 437.445
BEESAT 3 23 Feb 16:27:17 16:29:35 15° 250° (WSW) 16:31:52 437.485
ITUPSAT 1 23 Feb 16:29:19 16:31:18 12° 302° (WNW) 16:33:16 437.325
CUBESAT XI-V 23 Feb 16:31:16 16:35:51 63° 101° (E) 16:40:23 437.345
BEESAT 23 Feb 16:38:42 16:39:13 10° 304° (NW) 16:39:44 436.000
M-CUBED/EXP-1 PRIME 23 Feb 16:39:16 16:42:21 24° 102° (ESE) 16:45:37 437.505
AO-7 23 Feb 16:52:03 16:54:11 11° 275° (W) 16:56:20 .
PCSat 23 Feb 16:58:28 17:03:49 60° 305° (NW) 17:09:13 145.827
KAITUO 1B 23 Feb 16:59:42 17:03:25 55° 74° (ENE) 17:07:10 145.475/437.950
BEESAT 2 23 Feb 17:00:38 17:03:09 16° 249° (WSW) 17:05:39 435.950
XW-2F 23 Feb 17:00:50 17:04:38 69° 75° (ENE) 17:08:29 145.980 - 146.000
RS-15 23 Feb 17:03:20 17:14:53 60° 114° (ESE) 17:26:52 29.354- 29.394
XW-2D 23 Feb 17:04:09 17:07:59 81° 77° (ENE) 17:11:52 145.860 - 145.880
STARS 23 Feb 17:04:15 17:08:42 80° 286° (WNW) 17:13:08 437.465
XW-2B 23 Feb 17:09:08 17:12:59 89° 81° (E) 17:16:52 145.730 - 145.750
XW-2C 23 Feb 17:17:42 17:21:33 71° 260° (W) 17:25:25 145.795 - 145.815
CUTE 1.7 + AOD 2 23 Feb 17:18:17 17:20:38 15° 63° (ENE) 17:23:00 437.475
DOVE 4 23 Feb 17:28:54 17:32:56 52° 260° (W) 17:37:00 437.250
CUTE-I 23 Feb 17:31:08 17:36:25 65° 258° (WSW) 17:41:46 437.470
LilacSat-2 23 Feb 17:32:29 17:36:12 45° 261° (W) 17:39:58 437.200
NUDT-PHONESAT 23 Feb 17:37:19 17:40:58 49° 261° (W) 17:44:39 437.300
HO-68 23 Feb 17:41:40 17:48:24 46° 64° (ENE) 17:55:09 435.675
STRAND 1 23 Feb 17:45:58 17:47:00 11° 87° (E) 17:48:02 437.568
XW-2A 23 Feb 17:49:47 17:52:57 38° 72° (ENE) 17:56:10 145.665 - 145.685
UWE-3 23 Feb 17:57:25 17:59:06 12° 59° (ENE) 18:00:48 435.000/436.395/437.385
KKS-1 23 Feb 18:03:10 18:04:36 11° 301° (WNW) 18:06:02 437.445
CUBESAT XI-V 23 Feb 18:10:04 18:12:43 15° 298° (WNW) 18:15:21 437.345
M-CUBED/EXP-1 PRIME 23 Feb 18:13:39 18:16:48 27° 295° (WNW) 18:20:09 437.505
AAUSAT CUBESAT 2 23 Feb 18:14:14 18:17:09 19° 65° (ENE) 18:20:03 437.432
SEEDS 23 Feb 18:17:38 18:21:34 39° 71° (ENE) 18:25:31 437.485
ZACube-1 23 Feb 18:22:40 18:24:47 13° 60° (ENE) 18:26:53 437.345
KAITUO 1B 23 Feb 18:36:40 18:37:48 11° 270° (W) 18:38:55 145.475/437.950
PCSat 23 Feb 18:45:37 18:48:23 14° 326° (NW) 18:51:10 145.827
CUBEBUG 2 23 Feb 18:48:51 18:53:10 58° 73° (ENE) 18:57:40 437.445
CUTE 1.7 + AOD 2 23 Feb 18:51:46 18:56:00 58° 260° (W) 19:00:14 437.475
AO-73 23 Feb 19:10:02 19:14:03 34° 69° (ENE) 19:18:09 145.935
RS-15 23 Feb 19:16:06 19:27:47 52° 319° (NW) 19:39:49 29.354- 29.394
Oscar 11 23 Feb 19:19:23 19:23:23 37° 70° (ENE) 19:27:24 .
STRAND 1 23 Feb 19:21:43 19:26:55 86° 105° (ESE) 19:32:04 437.568
XW-2A 23 Feb 19:24:30 19:25:56 12° 269° (W) 19:27:23 145.665 - 145.685
HO-68 23 Feb 19:29:39 19:36:12 37° 263° (W) 19:42:48 435.675
UWE-3 23 Feb 19:30:25 19:34:51 82° 259° (W) 19:39:27 435.000/436.395/437.385
AAUSAT CUBESAT 2 23 Feb 19:48:23 19:52:19 41° 262° (W) 19:56:16 437.432
SEEDS 23 Feb 19:54:20 19:57:24 19° 268° (W) 20:00:29 437.485
ZACube-1 23 Feb 19:55:59 20:00:25 74° 259° (W) 20:04:58 437.345
DELFI C3 23 Feb 20:03:41 20:07:17 34° 70° (ENE) 20:10:52 145.870
PRISM 23 Feb 20:14:29 20:16:27 13° 91° (E) 20:18:24 437.425
CUBEBUG 2 23 Feb 20:27:45 20:30:13 15° 271° (W) 20:32:43 437.445
YUBILEINY 23 Feb 20:33:57 20:42:14 44° 72° (ENE) 20:50:24 435.215
AO-73 23 Feb 20:46:41 20:50:20 24° 267° (W) 20:54:03 145.935
Oscar 11 23 Feb 20:56:16 20:59:37 21° 267° (W) 21:02:58 .
